Flag for New Zealand Weather past 2 weeks in Christchurch, New Zealand

Now
63 °F

Scattered clouds.


Feels Like: 63 °F
Forecast: 53 / 65 °F
Wind: 12 mph from East

Location: Christchurch Airport

Current Time: Mar 31, 2015 at 3:09:26 PM

Latest Report: Mar 31, 2015 at 2:30 PM


Visibility: N/A

Pressure: 30.09 "Hg

Humidity: 68%

Dew point: 52 °F

Location of ChristchurchLocation

Historic Weather in Christchurch — Graph

°F

Christchurch temperature yesterday

Maximum temperature yesterday: 66 °F (at 11:30 AM)
Minimum temperature yesterday: 46 °F (at 3:00 AM)
Average temperature yesterday: 58 °F

Past Weeks' High & Low Weather Summary

 TemperatureHumidityPressure
High75 °F (Mar 29, 3:00 PM)100% (Mar 16, 1:30 PM)30.30 "Hg (Mar 16, 1:30 PM)
Low43 °F (Mar 20, 8:00 AM)31% (Mar 29, 3:30 PM)29.56 "Hg (Mar 29, 2:30 PM)
Average56 °F79%29.96 "Hg
* Reported Mar 16 1:00 PM — Mar 31 1:30 PM, Christchurch, Weather by CustomWeather, © 2015

Note: Actual official high and low records may vary slightly from our data, if they occured in-between our weather recording intervals... More about our weather records

Advertising

Christchurch weather history for previous 24 hours

 ConditionsComfort  
Time TempWeatherWind HumidityBarometerVisibility
1:30 PM
Tue, Mar 31
64 °FBroken clouds.8 mph64%30.12 "HgN/A
1:00 PM64 °FCloudy.10 mph64%30.09 "HgN/A
12:30 PM61 °FPartly sunny.9 mph72%30.09 "HgN/A
12:00 PM61 °FPartly sunny.9 mph72%30.09 "HgN/A
11:30 AM61 °FMostly cloudy.8 mph72%30.09 "HgN/A
11:00 AM59 °FPartly sunny.8 mph77%30.09 "HgN/A
10:30 AM61 °FPartly sunny.7 mph77%30.09 "HgN/A
10:00 AM57 °FCloudy.3 mph82%30.09 "HgN/A
9:30 AM57 °FPartly sunny.2 mph82%30.07 "HgN/A
9:00 AM55 °FMostly cloudy.2 mph88%30.07 "HgN/A
8:30 AM55 °FPartly sunny.2 mph88%30.07 "HgN/A
8:00 AM54 °FOvercast.1 mph94%30.07 "HgN/A
7:30 AM54 °FMostly cloudy.1 mph88%30.04 "HgN/A
7:00 AM55 °FMostly cloudy.2 mph82%30.04 "HgN/A
6:30 AM55 °FMostly cloudy.2 mph82%30.04 "HgN/A
6:00 AM55 °FMostly cloudy.2 mph88%30.04 "HgN/A
5:30 AM55 °FMostly cloudy.3 mph88%30.04 "HgN/A
5:00 AM55 °FOvercast.7 mph88%30.01 "HgN/A
4:30 AM55 °FOvercast.5 mph88%30.01 "HgN/A
4:00 AM55 °FPassing clouds.3 mph88%30.01 "HgN/A
3:30 AM55 °FMostly cloudy.6 mph88%30.01 "HgN/A
3:00 AM55 °FMostly cloudy.5 mph88%30.01 "HgN/A
2:30 AM52 °FPartly cloudy.6 mph94%30.01 "HgN/A
2:00 AM55 °FPassing clouds.3 mph88%30.01 "HgN/A
1:30 AM55 °FPassing clouds.3 mph88%29.98 "HgN/A
1:00 AM57 °FPartly cloudy.7 mph82%29.98 "HgN/A
12:30 AM57 °FOvercast.9 mph82%29.98 "HgN/A
12:00 AM57 °FMostly cloudy.8 mph82%29.98 "HgN/A
11:30 PM
Mon, Mar 30
57 °FPassing clouds.7 mph82%29.98 "HgN/A
11:00 PM57 °FPassing clouds.7 mph82%29.95 "HgN/A
10:30 PM57 °FPassing clouds.8 mph82%29.95 "HgN/A
10:00 PM57 °FPassing clouds.9 mph77%29.95 "HgN/A
9:30 PM55 °FPassing clouds.10 mph88%29.95 "HgN/A
9:00 PM57 °FPassing clouds.10 mph82%29.95 "HgN/A
8:30 PM57 °FPassing clouds.10 mph77%29.92 "HgN/A
8:00 PM59 °FOvercast.9 mph72%29.92 "HgN/A
7:30 PM59 °FPassing clouds.9 mph72%29.92 "HgN/A
7:00 PM59 °FScattered clouds.10 mph72%29.92 "HgN/A
6:30 PM63 °FPartly sunny.12 mph64%29.89 "HgN/A
6:00 PM63 °FMild.12 mph64%29.89 "HgN/A
5:30 PM64 °FPassing clouds.10 mph64%29.89 "HgN/A
5:00 PM64 °FPartly sunny.6 mph60%29.89 "HgN/A
4:30 PM64 °FPartly sunny.6 mph56%29.89 "HgN/A
4:00 PM64 °FPartly sunny.9 mph56%29.86 "HgN/A
3:30 PM66 °FPartly sunny.6 mph52%29.86 "HgN/A
3:00 PM66 °FPassing clouds.8 mph56%29.86 "HgN/A
Weather by CustomWeather, © 2015

See weather overviewHow to use our weather pages